Date String (YYYY-MM-DD hh:mm:ss) UTC,Instrument flags,Ambient pressure (hPa),Sample flow (lpm),Bypass flow (lpm),Sample temperature (°C),Ambient temperature (°C),ASC tube jacket temperature (°C),LED temperature (°C),Box temperature (°C),Sample RH (%),Span deviation,Mass concentration (μg/m³),Mass concentration (μg/m³),Mass concentration (μg/m³)
DateTimeUTC,F1_M11,P_M11,Q1_M11,Q2_M11,T1_M11,T2_M11,T3_M11,T4_M11,T5_M11,U1_M11,ZSPAN_M11,X0_M11,X2_M11,X1_M11
2022-09-10 13:00:00,,0832.1,5.00,0.00,28.4,26.8,00.0,37.1,30.2,25.0,0000.0,0006.40,0004.43,0004.23
2022-09-10 13:01:00,,0832.1,5.00,0.00,28.4,26.8,00.0,37.1,30.2,25.0,0000.0,0006.24,0004.40,0004.24
2022-09-10 13:02:00,,0832.1,4.98,0.00,28.4,26.8,00.0,37.1,30.2,25.1,0000.0,0006.24,0004.41,0004.24
2022-09-10 13:03:00,,0832.2,5.00,0.00,28.4,26.8,00.0,37.1,30.2,25.1,0000.0,0006.22,0004.42,0004.25
2022-09-10 13:04:00,,0832.1,5.00,0.00,28.4,26.8,00.0,37.1,30.2,25.1,0000.0,0006.24,0004.43,0004.26
2022-09-10 13:05:00,,0832.1,5.00,0.00,28.4,26.8,00.0,37.1,30.2,25.2,0000.0,0006.33,0004.45,0004.27
2022-09-10 13:06:00,,0832.1,5.00,0.00,28.4,26.8,00.0,37.1,30.2,25.2,0000.0,0006.40,0004.45,0004.28
2022-09-10 13:07:00,,0832.1,5.00,0.00,28.4,26.8,00.0,37.1,30.2,25.1,0000.0,0006.39,0004.44,0004.27
2022-09-10 13:08:00,,0832.1,5.00,0.00,28.4,26.8,00.0,37.1,30.2,25.1,0000.0,0006.49,0004.46,0004.27
2022-09-10 13:09:00,,0832.1,5.01,0.00,28.4,26.7,00.0,37.1,30.2,25.0,0000.0,0006.58,0004.50,0004.30
2022-09-10 13:10:00,,0832.1,5.00,0.00,28.4,26.7,00.0,37.1,30.2,25.0,0000.0,0006.55,0004.50,0004.31
2022-09-10 13:11:00,,0832.1,5.00,0.00,28.4,26.7,00.0,37.1,30.2,24.9,0000.0,0006.60,0004.50,0004.31
2022-09-10 13:12:00,,0832.1,5.01,0.00,28.4,26.7,00.0,37.1,30.2,24.9,0000.0,0006.59,0004.48,0004.28
2022-09-10 13:13:00,,0832.1,5.00,0.00,28.4,26.7,00.0,37.1,30.2,24.9,0000.0,0006.61,0004.44,0004.24
2022-09-10 13:14:00,,0832.1,5.00,0.00,28.4,26.7,00.0,37.1,30.2,24.9,0000.0,0006.64,0004.41,0004.20
2022-09-10 13:15:00,,0832.1,5.00,0.00,28.4,26.7,00.0,37.1,30.2,24.9,0000.0,0006.67,0004.39,0004.17
2022-09-10 13:16:00,,0832.1,5.00,0.00,28.3,26.7,00.0,37.1,30.2,25.0,0000.0,0006.55,0004.34,0004.14
2022-09-10 13:17:00,,0832.1,5.00,0.00,28.3,26.7,00.0,37.1,30.2,25.0,0000.0,0006.46,0004.31,0004.11
2022-09-10 13:18:00,,0832.2,5.00,0.00,28.3,26.7,00.0,37.1,30.2,25.0,0000.0,0006.42,0004.28,0004.07
2022-09-10 13:19:00,,0832.2,5.00,0.00,28.3,26.7,00.0,37.1,30.2,25.0,0000.0,0006.31,0004.23,0004.04
2022-09-10 13:20:00,,0832.2,5.00,0.00,28.3,26.7,00.0,37.1,30.2,25.0,0000.0,0006.27,0004.19,0004.00
2022-09-10 13:21:00,,0832.3,5.00,0.00,28.3,26.7,00.0,37.1,30.2,25.0,0000.0,0006.27,0004.16,0003.96
2022-09-10 13:22:00,,0832.2,5.00,0.00,28.3,26.7,00.0,37.1,30.2,25.0,0000.0,0006.18,0004.12,0003.93
2022-09-10 13:23:00,,0832.3,5.01,0.00,28.3,26.7,00.0,37.1,30.2,25.0,0000.0,0006.03,0004.08,0003.90
2022-09-10 13:24:00,,0832.3,5.01,0.00,28.3,26.7,00.0,37.1,30.2,24.9,0000.0,0005.81,0004.04,0003.87
2022-09-10 13:25:00,,0832.2,5.00,0.00,28.3,26.7,00.0,37.1,30.2,24.9,0000.0,0005.71,0004.02,0003.85
2022-09-10 13:26:00,,0832.3,5.00,0.00,28.3,26.7,00.0,37.1,30.2,24.9,0000.0,0005.59,0004.00,0003.84
2022-09-10 13:27:00,,0832.3,5.00,0.00,28.3,26.7,00.0,37.1,30.2,25.1,0000.0,0005.55,0003.98,0003.82
2022-09-10 13:28:00,,0832.4,5.00,0.00,28.3,26.7,00.0,37.1,30.2,26.2,0000.0,0005.48,0003.97,0003.80
2022-09-10 13:29:00,,0832.4,5.00,0.00,28.3,26.7,00.0,37.1,30.2,25.7,0000.0,0005.88,0003.96,0003.80
2022-09-10 13:30:00,,0832.3,5.01,0.00,28.3,26.7,00.0,37.1,30.2,25.2,0000.0,0006.03,0003.95,0003.78
2022-09-10 13:31:00,,0832.3,5.00,0.00,28.3,26.7,00.0,37.1,30.2,25.2,0000.0,0006.01,0003.92,0003.75
2022-09-10 13:32:00,,0832.4,5.00,0.00,28.3,26.7,00.0,37.1,30.2,25.2,0000.0,0005.93,0003.89,0003.72
2022-09-10 13:33:00,,0832.4,5.00,0.00,28.3,26.7,00.0,37.0,30.2,25.1,0000.0,0005.91,0003.87,0003.70
2022-09-10 13:34:00,,0832.5,5.00,0.00,28.3,26.7,00.0,37.0,30.2,25.1,0000.0,0005.95,0003.87,0003.68
2022-09-10 13:35:00,,0832.4,5.00,0.00,28.3,26.7,00.0,37.0,30.2,25.1,0000.0,0005.99,0003.88,0003.67
2022-09-10 13:36:00,,0832.4,5.00,0.00,28.3,26.7,00.0,37.0,30.1,25.2,0000.0,0006.04,0003.88,0003.67
2022-09-10 13:37:00,,0832.4,5.00,0.00,28.3,26.7,00.0,37.0,30.1,25.2,0000.0,0006.04,0003.87,0003.66
2022-09-10 13:38:00,,0832.5,5.00,0.00,28.3,26.7,00.0,37.0,30.1,25.3,0000.0,0006.06,0003.88,0003.67
2022-09-10 13:39:00,,0832.4,5.00,0.00,28.3,26.6,00.0,37.0,30.1,25.4,0000.0,0006.01,0003.88,0003.67
2022-09-10 13:40:00,,0832.5,5.00,0.00,28.3,26.6,00.0,37.0,30.1,25.3,0000.0,0005.68,0003.86,0003.66
2022-09-10 13:41:00,,0832.5,5.01,0.00,28.3,26.6,00.0,37.0,30.1,25.2,0000.0,0006.19,0003.83,0003.64
2022-09-10 13:42:00,,0832.5,5.00,0.00,28.3,26.6,00.0,37.0,30.1,25.2,0000.0,0006.59,0003.83,0003.64
2022-09-10 13:43:00,,0832.5,5.00,0.00,28.3,26.6,00.0,37.0,30.1,25.1,0000.0,0006.54,0003.82,0003.63
2022-09-10 13:44:00,,0832.5,5.01,0.00,28.3,26.6,00.0,37.0,30.1,25.1,0000.0,0006.55,0003.82,0003.63
2022-09-10 13:45:00,,0832.6,5.00,0.00,28.3,26.6,00.0,37.0,30.1,25.1,0000.0,0006.51,0003.82,0003.64
2022-09-10 13:46:00,,0832.6,5.00,0.00,28.2,26.6,00.0,37.0,30.1,25.2,0000.0,0006.54,0003.84,0003.66
2022-09-10 13:47:00,,0832.6,5.00,0.00,28.2,26.6,00.0,37.0,30.1,25.2,0000.0,0006.50,0003.84,0003.68
2022-09-10 13:48:00,,0832.6,5.00,0.00,28.2,26.6,00.0,37.0,30.1,25.2,0000.0,0006.55,0003.86,0003.70
2022-09-10 13:49:00,,0832.6,5.00,0.00,28.2,26.6,00.0,37.0,30.1,25.1,0000.0,0006.59,0003.88,0003.72
2022-09-10 13:50:00,,0832.6,4.98,0.00,28.2,26.6,00.0,37.0,30.1,25.1,0000.0,0006.70,0003.93,0003.76
2022-09-10 13:51:00,,0832.6,5.00,0.00,28.2,26.7,00.0,37.0,30.1,25.2,0000.0,0006.76,0003.98,0003.81
2022-09-10 13:52:00,,0832.7,5.00,0.00,28.2,26.6,00.0,37.0,30.1,25.1,0000.0,0006.00,0004.01,0003.86
2022-09-10 13:53:00,,0832.6,5.00,0.00,28.2,26.6,00.0,37.0,30.1,25.1,0000.0,0005.40,0004.02,0003.89
2022-09-10 13:54:00,,0832.6,5.00,0.00,28.2,26.6,00.0,37.0,30.1,25.1,0000.0,0005.57,0004.07,0003.93
2022-09-10 13:55:00,,0832.6,5.00,0.00,28.2,26.6,00.0,37.0,30.1,25.1,0000.0,0005.65,0004.10,0003.97
2022-09-10 13:56:00,,0832.6,5.01,0.00,28.2,26.6,00.0,36.9,30.1,25.2,0000.0,0005.77,0004.14,0004.01
2022-09-10 13:57:00,,0832.6,5.00,0.00,28.2,26.6,00.0,36.9,30.0,25.1,0000.0,0005.94,0004.18,0004.04
2022-09-10 13:58:00,,0832.6,5.00,0.00,28.2,26.6,00.0,36.9,30.0,25.2,0000.0,0006.07,0004.22,0004.06
2022-09-10 13:59:00,,0832.6,5.00,0.00,28.2,26.6,00.0,36.9,30.0,25.3,0000.0,0006.00,0004.22,0004.07
